This is the latest recevied weather packets stored in our database for station/object KB3AWQ. If no packets are shown the sender has not sent any weather packets the latest 10 day(s).
| Time | Temp. | Humidity | Pressure | Rain* | Wind** | Luminosity | Snow |
|---|---|---|---|---|---|---|---|
| 1777741168 | 11.67° C | 52% | 1013.9 hPa | 0 mm | - | 290 W/m² | - |
| 1777740866 | 11.67° C | 50% | 1014 hPa | 0 mm | - | 288 W/m² | - |
| 1777740566 | 12.22° C | 50% | 1014.1 hPa | 0 mm | - | 187 W/m² | - |
| 1777740266 | 12.78° C | 50% | 1014.1 hPa | 0 mm | - | 142 W/m² | - |
| 1777739967 | 12.78° C | 50% | 1014.1 hPa | 0 mm | - | 143 W/m² | - |
| 1777739667 | 12.78° C | 47% | 1014.1 hPa | 0 mm | - | 293 W/m² | - |
| 1777739366 | 12.78° C | 47% | 1014.1 hPa | 0 mm | - | 362 W/m² | - |
| 1777739066 | 13.33° C | 49% | 1014.1 hPa | 0 mm | - | 383 W/m² | - |
| 1777738766 | 13.33° C | 47% | 1014.2 hPa | 0 mm | - | 414 W/m² | - |
| 1777738467 | 12.78° C | 46% | 1014.2 hPa | 0 mm | - | 1161 W/m² | - |
| 1777738167 | 12.22° C | 51% | 1014.2 hPa | 0 mm | - | 911 W/m² | - |
| 1777737867 | 12.22° C | 51% | 1014.3 hPa | 0 mm | - | 373 W/m² | - |
| 1777737566 | 11.67° C | 51% | 1014.3 hPa | 0 mm | - | 354 W/m² | - |
| 1777737266 | 11.67° C | 53% | 1014.3 hPa | 0 mm | - | 550 W/m² | - |
| 1777736966 | 11.67° C | 54% | 1014.3 hPa | 0 mm | - | 565 W/m² | - |
| 1777736666 | 11.67° C | 48% | 1014.3 hPa | 0 mm | - | 364 W/m² | - |
| 1777736366 | 11.67° C | 53% | 1014.4 hPa | 0 mm | - | 662 W/m² | - |
| 1777736066 | 11.67° C | 54% | 1014.4 hPa | 0 mm | - | 1133 W/m² | - |
| 1777735768 | 11.67° C | 50% | 1014.5 hPa | 0 mm | - | 366 W/m² | - |
| 1777735467 | 12.78° C | 49% | 1014.4 hPa | 0 mm | - | 306 W/m² | - |
| 1777735166 | 12.78° C | 49% | 1014.4 hPa | 0 mm | - | 320 W/m² | - |
| 1777734867 | 12.22° C | 54% | 1014.4 hPa | 0 mm | - | 935 W/m² | - |
| 1777734566 | 12.22° C | 51% | 1014.4 hPa | 0 mm | - | 871 W/m² | - |
| 1777734267 | 13.33° C | 48% | 1014.4 hPa | 0 mm | - | 248 W/m² | - |
| 1777733967 | 12.78° C | 48% | 1014.4 hPa | 0 mm | - | 864 W/m² | - |
* Rain latest hour (hover to see other rain measurements)
** Current wind speed in m/s (hover to see current wind gust speed)